This demonstration page uses our WeatherBlox Daily Observations layout. Learn more.

Left ArrowRight Arrow

39.51506, -84.39828

Hourly Observations for May 23, 2020

Temp ( °F °C ) Dew Point ( °F °C ) Humidity (%) Winds ( mph kmh ) Pressure ( in mb ) Visibility ( mi km ) Precip ( " mm )
12:15 am 00:15 Clear 58 14.5 58 14.2 98 98 Calm 30.01 1016 10 16.0934 0 0
12:35 am 00:35 Clear 57 14 57 13.8 99 99 Calm 30.01 1016 10 16.0934 0 0
12:55 am 00:55 Clear 58 14.4 58 14.2 99 99 Calm 30.02 1017 10 16.0934 0 0
1:15 am 01:15 Clear 58 14.2 57 14.1 99 99 Calm 30.01 1016 10 16.0934 0 0
1:35 am 01:35 Clear with Mist and Fog 57 13.7 56 13.6 99 99 Calm 30.01 1016 5 8.0467 0 0
1:55 am 01:55 Clear with Mist and Fog 57 14.1 57 14.1 100 100 Calm 30.02 1017 7 11.26538 0 0
2:15 am 02:15 Partly Cloudy with Mist and Fog 57 14 55 13 94 94 Calm 30.02 1017 3 4.82802 0 0
2:35 am 02:35 Partly Cloudy 57 14 N/A N/A Calm 30.02 1017 10 16.0934 0 0
2:55 am 02:55 Cloudy with Mist and Fog 57 13.7 57 13.7 100 100 Calm 30.01 1016 5 8.0467 0 0
3:15 am 03:15 Mostly Cloudy 56 13.6 56 13.6 100 100 Calm 30.01 1016 10 16.0934 0 0
3:35 am 03:35 Cloudy 57 14 57 14 100 100 Calm 30.01 1016 10 16.0934 0 0
3:55 am 03:55 Partly Cloudy 57 13.8 57 13.7 99 99 Calm 30 1016 10 16.0934 0 0
4:15 am 04:15 Mostly Cloudy 56 13.5 56 13.4 99 99 Calm 30 1016 10 16.0934 0 0
4:35 am 04:35 Cloudy 57 14 57 14 100 100 Calm 30 1016 10 16.0934 0 0
4:55 am 04:55 Mostly Cloudy 57 13.9 57 13.9 100 100 Calm 29.99 1016 10 16.0934 0 0
5:15 am 05:15 Cloudy 57 13.8 57 13.7 99 99 Calm 30 1016 10 16.0934 0 0
5:35 am 05:35 Cloudy 58 14.4 58 14.3 99 99 Calm 30 1016 10 16.0934 0 0
5:55 am 05:55 Cloudy 58 14.3 58 14.2 99 99 Calm 30.01 1016 10 16.0934 0 0
6:15 am 06:15 Cloudy 58 14.4 58 14.3 99 99 Calm 30.01 1016 7 11.26538 0 0
6:35 am 06:35 Cloudy with Mist and Fog 58 14.6 58 14.5 99 99 ENE 3 6 30 1016 7 11.26538 0 0
6:55 am 06:55 Cloudy 59 14.9 59 14.8 99 99 Calm 30 1016 7 11.26538 0 0
7:15 am 07:15 Cloudy 59 15.1 59 14.9 99 99 Calm 30.01 1016 10 16.0934 0 0
7:35 am 07:35 Cloudy 60 15.6 60 15.3 98 98 Calm 30.02 1016 10 16.0934 0 0
7:55 am 07:55 Mostly Cloudy 61 16.1 60 15.6 97 97 Calm 30.01 1016 10 16.0934 0 0
8:15 am 08:15 Sunny 62 16.7 60 15.6 93 93 Calm 30.02 1017 10 16.0934 0 0
8:35 am 08:35 Sunny 63 17.4 61 16.2 93 93 ENE 3 6 30.02 1017 10 16.0934 0 0
8:55 am 08:55 Sunny 65 18.1 61 16.2 89 89 Calm 30.03 1017 10 16.0934 0 0
9:15 am 09:15 Sunny 67 19.4 63 17.1 87 87 Calm 30.04 1017 10 16.0934 0 0
9:35 am 09:35 Sunny 68 20 63 17.1 83 83 Calm 30.03 1017 10 16.0934 0 0
9:55 am 09:55 Sunny 69 20.7 64 17.6 83 83 Calm 30.03 1017 10 16.0934 0 0
10:15 am 10:15 Partly Cloudy 72 22 65 18.3 80 80 SSE 5 7 30.03 1017 10 16.0934 0 0
10:35 am 10:35 Hazy 74 23.2 66 18.7 76 76 S 5 7 30.03 1017 5 8.0467 0 0
10:55 am 10:55 Sunny 74 23.6 65 18.5 73 73 S 3 6 30.03 1017 10 16.0934 0 0
11:15 am 11:15 Sunny 76 24.3 65 18.4 70 70 S 3 6 30.02 1017 10 16.0934 0 0
11:35 am 11:35 Sunny 76 24.7 64 17.6 65 65 S 7 11 30.02 1017 10 16.0934 0 0
11:55 am 11:55 Sunny 77 25.2 63 17 60 60 E 3 6 30.02 1017 10 16.0934 0 0
12:15 pm 12:15 Sunny 78 25.6 63 17.4 61 61 Calm 30.02 1017 10 16.0934 0 0
12:35 pm 12:35 Sunny 78 25.8 64 17.9 62 62 SSE 6 9 30.01 1016 10 16.0934 0 0
12:55 pm 12:55 Partly Cloudy 79 26.1 65 18.3 62 62 SE 6 9 30 1016 7 11.26538 0 0
1:15 pm 13:15 Partly Cloudy 79 25.9 64 17.7 61 61 S 6 9 29.99 1016 10 16.0934 0 0
1:35 pm 13:35 Partly Cloudy 80 26.9 66 18.7 61 61 S 7 11 29.99 1016 10 16.0934 0 0
1:55 pm 13:55 Mostly Cloudy 79 26.1 65 18.2 62 62 SSE 6 9 29.99 1016 10 16.0934 0 0
2:15 pm 14:15 Mostly Cloudy 79 26.2 65 18.5 63 63 S 6 9 29.98 1015 10 16.0934 0 0
2:35 pm 14:35 Mostly Cloudy 79 26.2 66 18.8 64 64 S 5 7 29.98 1015 10 16.0934 0 0
2:55 pm 14:55 Mostly Cloudy 81 27 66 19 62 62 SSW 3 6 29.97 1015 10 16.0934 0 0
3:15 pm 15:15 Mostly Cloudy 81 27.2 67 19.3 62 62 SSE 10 17 29.96 1014 10 16.0934 0 0
3:35 pm 15:35 Mostly Cloudy 82 28 67 19.7 61 61 S 6 9 29.95 1014 10 16.0934 0 0
3:55 pm 15:55 Cloudy 80 26.6 66 19 63 63 S 8 13 29.95 1014 10 16.0934 0 0
4:15 pm 16:15 Mostly Cloudy 81 27.1 66 19.1 62 62 S 6 9 29.95 1014 10 16.0934 0 0
4:35 pm 16:35 Mostly Cloudy 79 26.3 66 19 64 64 SSW 7 11 29.95 1014 10 16.0934 0 0
4:55 pm 16:55 Mostly Cloudy 79 26.3 67 19.2 65 65 SSW 3 6 29.94 1014 10 16.0934 0 0
5:15 pm 17:15 Cloudy 79 26.2 67 19.6 67 67 S 3 6 29.94 1014 10 16.0934 0 0
5:35 pm 17:35 Cloudy with Light Rain 78 25.4 69 20.4 74 74 WSW 8 13 29.96 1015 10 16.0934 0 0
5:55 pm 17:55 Cloudy with Mist and Fog 67 19.2 65 18.2 94 94 NW 13 20 30 1016 2.5 4.02335 0 0
6:15 pm 18:15 Cloudy with Rain 66 19.1 65 18.5 96 96 SW 5 7 30 1016 7 11.26538 0 0
6:35 pm 18:35 Cloudy with Light Rain 67 19.5 66 18.7 95 95 Calm 29.99 1015 10 16.0934 0 0
6:55 pm 18:55 Cloudy 68 19.8 67 19.2 96 96 ESE 7 11 29.99 1015 10 16.0934 0 0
7:15 pm 19:15 Partly Cloudy 68 19.9 67 19.3 96 96 Calm 29.98 1015 10 16.0934 0 0
7:35 pm 19:35 Sunny 68 20 67 19.2 95 95 Calm 29.97 1015 10 16.0934 0 0
7:55 pm 19:55 Sunny 68 20 67 19.3 96 96 Calm 29.97 1015 10 16.0934 0 0
8:15 pm 20:15 Partly Cloudy 68 20 67 19.4 96 96 SSW 5 7 29.97 1015 10 16.0934 0 0
8:35 pm 20:35 Cloudy with Light Rain 68 20 67 19.5 97 97 S 10 17 29.94 1014 10 16.0934 0 0
8:55 pm 20:55 Clear with Nearby Thunderstorms 68 20 66 19.1 95 95 Calm 29.97 1015 10 16.0934 0 0
9:15 pm 21:15 Partly Cloudy with Light Rain 68 19.9 66 19.1 95 95 Calm 29.97 1015 7 11.26538 0 0
9:35 pm 21:35 Clear with Light Rain 67 19.5 66 19 97 97 N 3 6 29.98 1015 10 16.0934 0 0
9:55 pm 21:55 Partly Cloudy with Light Rain 67 19.3 66 19.1 99 99 Calm 29.98 1015 10 16.0934 0 0
10:15 pm 22:15 Cloudy with Light Rain 67 19.3 67 19.2 99 99 Calm 29.97 1015 10 16.0934 0 0
10:35 pm 22:35 Clear with Light Rain 67 19.7 67 19.2 97 97 SW 5 7 29.97 1015 10 16.0934 0 0
10:55 pm 22:55 Clear 68 19.8 67 19.2 96 96 Calm 29.96 1014 10 16.0934 0 0
11:15 pm 23:15 Clear 68 19.8 66 19.1 96 96 Calm 29.98 1015 10 16.0934 0 0
11:35 pm 23:35 Clear 67 19.5 66 19 97 97 Calm 29.98 1015 10 16.0934 0 0
11:55 pm 23:55 Clear 66 18.7 65 18.5 99 99 Calm 29.99 1015 10 16.0934 0 0

Powered by AerisWeather